Weather History for KCQB - January, 2014

Change the Weather History Date:

Thursday, January 23, 2014

  Actual Average (KCUH) Record (KCUH)
Temperature  
Mean Temperature 24 °F -  
Max Temperature 33 °F 48 °F 75 °F (1964)
Min Temperature 12 °F 26 °F -3 °F (1963)
Degree Days  
Heating Degree Days 42    
Moisture  
Dew Point 5 °F    
Average Humidity 50    
Maximum Humidity 69    
Minimum Humidity 36    
Precipitation  
Precipitation 0.00 in - - ()
Sea Level Pressure  
Sea Level Pressure 30.67 in    
Wind  
Wind Speed 11 mph (NNE)    
Max Wind Speed 18 mph    
Max Gust Speed 26 mph    
Visibility 10 miles    
Events      
Averages and records for this station are not official NWS values.
T = Trace of Precipitation, MM = Missing Value Source: NWS Daily Summary

Daily Weather History Graph

Daily Weather History Graph

Search for Another Location

Airport or City:

Trip Planner

Search our weather history database for the weather conditions in past years. The results will help you decide how hot, cold, wet, or windy it might be!

Date:

Astronomy

Jan. 23, 2014 Rise Set
Actual Time 7:33 AM CST 5:45 PM CST
Civil Twilight 7:05 AM CST 6:12 PM CST
Nautical Twilight 6:34 AM CST 6:43 PM CST
Astronomical Twilight 6:04 AM CST 7:14 PM CST
Moon 12:03 AM CST (1/23) 11:24 AM CST (1/23)
Length of Visible Light 11h 06m
Length of Day
10h 12m
Waning Gibbous, 55% of the Moon is Illuminated
Jan 23
Waning Gibbous
Jan 23
Last Quarter
Jan 30
New
Feb 6
First Quarter
Feb 14
Full

Hourly Weather History & Observations

Time (CST) Temp. Windchill Dew Point Humidity Pressure Visibility Wind Dir Wind Speed Gust Speed Precip Events Conditions
12:15 AM 33.8 °F 27.7 °F 23.0 °F 65% 30.34 in 10.0 mi NNE 6.9 mph - N/A   Clear
12:35 AM 33.8 °F 27.0 °F 23.0 °F 65% 30.34 in 10.0 mi NNE 8.1 mph 16.1 mph N/A   Clear
12:55 AM 33.8 °F 23.5 °F 23.0 °F 65% 30.36 in 10.0 mi NNE 16.1 mph 21.9 mph N/A   Clear
1:15 AM 32.0 °F 22.5 °F 23.0 °F 69% 30.38 in 10.0 mi NNE 12.7 mph - N/A   Clear
1:35 AM 32.0 °F 22.5 °F 23.0 °F 69% 30.39 in 10.0 mi NNE 12.7 mph 18.4 mph N/A   Clear
1:55 AM 32.0 °F 23.0 °F 21.2 °F 64% 30.40 in 10.0 mi NNE 11.5 mph 17.3 mph N/A   Clear
2:15 AM 30.2 °F 20.2 °F 21.2 °F 69% 30.42 in 10.0 mi NNE 12.7 mph 23.0 mph N/A   Clear
2:35 AM 28.4 °F 18.5 °F 17.6 °F 64% 30.42 in 10.0 mi NNE 11.5 mph 23.0 mph N/A   Scattered Clouds
2:55 AM 28.4 °F 19.1 °F 17.6 °F 64% 30.44 in 10.0 mi NNE 10.4 mph 20.7 mph N/A   Mostly Cloudy
3:15 AM 28.4 °F 18.0 °F 15.8 °F 59% 30.45 in 10.0 mi NNE 12.7 mph 26.5 mph N/A   Overcast
3:35 AM 26.6 °F 16.2 °F 14.0 °F 59% 30.47 in 10.0 mi NNE 11.5 mph 20.7 mph N/A   Mostly Cloudy
3:55 AM 26.6 °F 15.7 °F 14.0 °F 59% 30.48 in 10.0 mi NNE 12.7 mph 20.7 mph N/A   Mostly Cloudy
4:15 AM 26.6 °F 14.3 °F 14.0 °F 59% 30.50 in 10.0 mi NNE 16.1 mph 21.9 mph N/A   Overcast
4:35 AM 24.8 °F 13.4 °F 14.0 °F 64% 30.51 in 10.0 mi NNE 12.7 mph 19.6 mph N/A   Overcast
4:55 AM 24.8 °F 14.0 °F 10.4 °F 54% 30.53 in 10.0 mi NNE 11.5 mph 23.0 mph N/A   Overcast
5:15 AM 23.0 °F 10.6 °F 6.8 °F 50% 30.53 in 10.0 mi NE 13.8 mph 24.2 mph N/A   Overcast
5:35 AM 23.0 °F 12.4 °F 6.8 °F 50% 30.55 in 10.0 mi NNE 10.4 mph 18.4 mph N/A   Mostly Cloudy
5:55 AM 21.2 °F 7.8 °F 5.0 °F 50% 30.55 in 10.0 mi NE 15.0 mph 23.0 mph N/A   Mostly Cloudy
6:15 AM 21.2 °F 10.1 °F 5.0 °F 50% 30.56 in 10.0 mi NNE 10.4 mph 23.0 mph N/A   Mostly Cloudy
6:35 AM 19.4 °F 5.5 °F 3.2 °F 49% 30.58 in 10.0 mi NNE 15.0 mph 20.7 mph N/A   Mostly Cloudy
6:55 AM 19.4 °F 6.6 °F 3.2 °F 49% 30.58 in 10.0 mi NNE 12.7 mph 21.9 mph N/A   Scattered Clouds
7:15 AM 19.4 °F 6.0 °F 1.4 °F 46% 30.60 in 10.0 mi NNE 13.8 mph 20.7 mph N/A   Clear
7:35 AM 19.4 °F 5.0 °F -0.4 °F 42% 30.64 in 10.0 mi NNE 16.1 mph 21.9 mph N/A   Scattered Clouds
7:55 AM 17.6 °F 3.2 °F -4.0 °F 38% 30.66 in 10.0 mi NE 15.0 mph 21.9 mph N/A   Scattered Clouds
8:15 AM 19.4 °F 6.6 °F -0.4 °F 42% 30.68 in 10.0 mi NNE 12.7 mph 19.6 mph N/A   Scattered Clouds
8:35 AM 17.6 °F 1.7 °F -0.4 °F 45% 30.69 in 10.0 mi NNE 18.4 mph 26.5 mph N/A   Mostly Cloudy
8:55 AM 17.6 °F 6.4 °F -0.4 °F 45% 30.71 in 10.0 mi NE 9.2 mph 24.2 mph N/A   Overcast
9:15 AM 17.6 °F 3.7 °F 1.4 °F 49% 30.72 in 10.0 mi North 13.8 mph 20.7 mph N/A   Mostly Cloudy
9:35 AM 17.6 °F 6.4 °F 1.4 °F 49% 30.73 in 10.0 mi NNE 9.2 mph 17.3 mph N/A   Mostly Cloudy
9:55 AM 17.6 °F 5.0 °F 1.4 °F 49% 30.75 in 10.0 mi NE 11.5 mph 18.4 mph N/A   Scattered Clouds
10:15 AM 19.4 °F 10.4 °F 1.4 °F 46% 30.76 in 10.0 mi NNE 6.9 mph 18.4 mph N/A   Scattered Clouds
10:35 AM 19.4 °F 5.5 °F 1.4 °F 46% 30.77 in 10.0 mi North 15.0 mph 20.7 mph N/A   Scattered Clouds
10:55 AM 21.2 °F 7.8 °F 1.4 °F 42% 30.77 in 10.0 mi NNE 15.0 mph 21.9 mph N/A   Clear
11:15 AM 21.2 °F 8.9 °F -0.4 °F 39% 30.78 in 10.0 mi NNE 12.7 mph 23.0 mph N/A   Scattered Clouds
11:35 AM 21.2 °F 7.8 °F 1.4 °F 42% 30.78 in 10.0 mi North 15.0 mph 19.6 mph N/A   Scattered Clouds
11:55 AM 21.2 °F 7.8 °F 1.4 °F 42% 30.78 in 10.0 mi NNE 15.0 mph 20.7 mph N/A   Mostly Cloudy
12:15 PM 21.2 °F 8.3 °F -0.4 °F 39% 30.77 in 10.0 mi NE 13.8 mph 19.6 mph N/A   Mostly Cloudy
12:35 PM 23.0 °F 13.1 °F -0.4 °F 36% 30.76 in 10.0 mi NE 9.2 mph 18.4 mph N/A   Mostly Cloudy
12:55 PM 21.2 °F 8.9 °F -0.4 °F 39% 30.75 in 7.0 mi NE 12.7 mph 19.6 mph N/A   Overcast
1:15 PM 21.2 °F 7.3 °F 1.4 °F 42% 30.75 in 10.0 mi NNE 16.1 mph - N/A   Overcast
1:35 PM 21.2 °F 7.3 °F -0.4 °F 39% 30.75 in 10.0 mi North 16.1 mph 20.7 mph N/A   Overcast
1:55 PM 21.2 °F 8.3 °F -0.4 °F 39% 30.76 in 10.0 mi NNE 13.8 mph 20.7 mph N/A   Overcast
2:15 PM 21.2 °F 8.9 °F -0.4 °F 39% 30.75 in 10.0 mi NNE 12.7 mph 18.4 mph N/A   Mostly Cloudy
2:35 PM 23.0 °F 11.7 °F 1.4 °F 39% 30.75 in 10.0 mi North 11.5 mph 18.4 mph N/A   Overcast
2:55 PM 23.0 °F 11.7 °F 1.4 °F 39% 30.75 in 10.0 mi NNE 11.5 mph 20.7 mph N/A   Overcast
3:15 PM 21.2 °F 9.5 °F -0.4 °F 39% 30.76 in 10.0 mi North 11.5 mph 17.3 mph N/A   Mostly Cloudy
3:35 PM 23.0 °F 13.9 °F 1.4 °F 39% 30.76 in 7.0 mi NNE 8.1 mph - N/A   Scattered Clouds
3:55 PM 23.0 °F 13.9 °F 1.4 °F 39% 30.76 in 10.0 mi NE 8.1 mph 17.3 mph N/A   Clear
4:15 PM 23.0 °F 12.4 °F 1.4 °F 39% 30.76 in 7.0 mi NNE 10.4 mph 16.1 mph N/A   Clear
4:35 PM 23.0 °F 13.1 °F 1.4 °F 39% 30.76 in 10.0 mi NNE 9.2 mph 16.1 mph N/A   Scattered Clouds
4:55 PM 23.0 °F 12.4 °F 1.4 °F 39% 30.77 in 10.0 mi North 10.4 mph - N/A   Scattered Clouds
5:15 PM 23.0 °F 13.9 °F -0.4 °F 36% 30.77 in 10.0 mi NNE 8.1 mph - N/A   Clear
5:35 PM 21.2 °F 10.9 °F -0.4 °F 39% 30.77 in 10.0 mi NNE 9.2 mph - N/A   Clear
5:55 PM 21.2 °F 12.6 °F 1.4 °F 42% 30.77 in 10.0 mi NNE 6.9 mph - N/A   Clear
6:15 PM 21.2 °F 13.6 °F 1.4 °F 42% 30.77 in 10.0 mi North 5.8 mph - N/A   Clear
6:35 PM 21.2 °F 12.6 °F 1.4 °F 42% 30.78 in 10.0 mi NNE 6.9 mph - N/A   Clear
6:55 PM 19.4 °F 11.5 °F 1.4 °F 46% 30.79 in 10.0 mi NNE 5.8 mph - N/A   Clear
7:15 PM 19.4 °F 12.8 °F 1.4 °F 46% 30.79 in 10.0 mi North 4.6 mph - N/A   Clear
7:35 PM 17.6 °F 10.7 °F 1.4 °F 49% 30.78 in 10.0 mi North 4.6 mph - N/A   Clear
7:55 PM 17.6 °F - 1.4 °F 49% 30.79 in 10.0 mi Calm Calm - N/A   Clear
8:35 PM 14.0 °F 8.2 °F 3.2 °F 62% 30.78 in 10.0 mi North 3.5 mph - N/A   Clear
8:55 PM 14.0 °F 8.2 °F 3.2 °F 62% 30.79 in 10.0 mi North 3.5 mph - N/A   Clear
9:15 PM 14.0 °F - 3.2 °F 62% 30.79 in 10.0 mi Calm Calm - N/A   Clear
9:55 PM 14.0 °F - 3.2 °F 62% 30.79 in 10.0 mi Calm Calm - N/A   Clear
10:15 PM 14.0 °F - 1.4 °F 57% 30.79 in 10.0 mi Calm Calm - N/A   Clear
10:35 PM 14.0 °F - 1.4 °F 57% 30.78 in 10.0 mi Calm Calm - N/A   Clear
10:55 PM 14.0 °F - 1.4 °F 57% 30.79 in 10.0 mi Calm Calm - N/A   Clear
11:15 PM 14.0 °F 8.2 °F 3.2 °F 62% 30.78 in 10.0 mi NNW 3.5 mph - N/A   Clear
11:35 PM 14.0 °F 8.2 °F 3.2 °F 62% 30.78 in 10.0 mi NNW 3.5 mph - N/A   Clear
11:55 PM 12.2 °F - 3.2 °F 67% 30.77 in 10.0 mi Calm Calm - N/A   Clear